• In Deutschland
  • Länderverzeichnis
  • Für 7 Tage
  • Wassertemperatur
  • Satellitenkarten
  • Wetterkarte
  • Widgets
  • user-avatar
    Anmelden

    Stündliche Wetter Malbun

    Heute, 17 Januar, Mittwoch

    Zeit Temperatur Niederschläge Wind Luftdruck Luftfeuchtigkeit
    00:00 -4°C° 0,8 mm 4 m/S 618 mmHg 91%
    01:00 -4°C° 0,8 mm 4 m/S 618 mmHg 91%
    02:00 -6°C° 0,9 mm 5 m/S 618 mmHg 92%
    03:00 -6°C° 0,9 mm 5 m/S 617 mmHg 92%
    04:00 -6°C° 0,9 mm 5 m/S 617 mmHg 93%
    05:00 -7°C° 1,3 mm 5 m/S 617 mmHg 93%
    06:00 -7°C° 1,3 mm 5 m/S 617 mmHg 93%
    07:00 -8°C° 1,3 mm 5 m/S 617 mmHg 93%
    08:00 -9°C° 1,1 mm 6 m/S 618 mmHg 93%
    09:00 -10°C° 1,1 mm 6 m/S 618 mmHg 93%
    10:00 -10°C° 1,1 mm 6 m/S 619 mmHg 93%
    11:00 -12°C° 0,9 mm 7 m/S 620 mmHg 92%
    12:00 -12°C° 0,9 mm 7 m/S 620 mmHg 91%
    13:00 -13°C° 0,9 mm 7 m/S 621 mmHg 91%
    14:00 -13°C° 0,5 mm 7 m/S 622 mmHg 90%
    15:00 -13°C° 0,5 mm 7 m/S 622 mmHg 90%
    16:00 -12°C° 0,5 mm 6 m/S 623 mmHg 90%
    17:00 -12°C° 0,7 mm 6 m/S 623 mmHg 91%
    18:00 -12°C° 0,7 mm 6 m/S 624 mmHg 92%
    19:00 -12°C° 0,7 mm 6 m/S 624 mmHg 93%
    20:00 -12°C° 0,9 mm 6 m/S 625 mmHg 93%
    21:00 -11°C° 0,9 mm 5 m/S 625 mmHg 93%
    22:00 -11°C° 0,9 mm 5 m/S 626 mmHg 94%
    23:00 -11°C° 0,7 mm 5 m/S 626 mmHg 93%

    Morgen, 18 Januar, Donnerstag

    Zeit Temperatur Niederschläge Wind Luftdruck Luftfeuchtigkeit
    00:00 -11°C° 0,7 mm 5 m/S 627 mmHg 93%
    01:00 -11°C° 0,7 mm 5 m/S 627 mmHg 93%
    02:00 -10°C° 0,5 mm 4 m/S 627 mmHg 93%
    03:00 -10°C° 0,5 mm 4 m/S 627 mmHg 93%
    04:00 -9°C° 0,5 mm 3 m/S 627 mmHg 92%
    05:00 -9°C° 0,3 mm 3 m/S 626 mmHg 91%
    06:00 -9°C° 0,3 mm 3 m/S 626 mmHg 90%
    07:00 -10°C° 0,3 mm 4 m/S 626 mmHg 88%
    08:00 -9°C° 0,6 mm 4 m/S 626 mmHg 89%
    09:00 -8°C° 0,6 mm 4 m/S 626 mmHg 90%
    10:00 -7°C° 0,6 mm 4 m/S 626 mmHg 90%
    11:00 -5°C° 1 mm 4 m/S 626 mmHg 91%
    12:00 -4°C° 1 mm 4 m/S 625 mmHg 91%
    13:00 -3°C° 1 mm 4 m/S 625 mmHg 92%
    14:00 -2°C° 0,6 mm 3 m/S 625 mmHg 92%
    15:00 -1°C° 0,6 mm 3 m/S 624 mmHg 93%
    16:00 -1°C° 0,6 mm 3 m/S 624 mmHg 93%
    17:00 -1°C° 0,6 mm 3 m/S 624 mmHg 93%
    18:00 -2°C° 0,6 mm 4 m/S 624 mmHg 93%
    19:00 -2°C° 0,6 mm 4 m/S 623 mmHg 93%
    20:00 -2°C° 0,6 mm 4 m/S 623 mmHg 92%
    21:00 -2°C° 0,6 mm 4 m/S 623 mmHg 92%
    22:00 -1°C° 0,6 mm 3 m/S 623 mmHg 91%
    23:00 -2°C° 0,9 mm 4 m/S 623 mmHg 92%

    übermorgen, 19 Januar, Freitag

    Zeit Temperatur Niederschläge Wind Luftdruck Luftfeuchtigkeit
    00:00 -2°C° 0,9 mm 4 m/S 623 mmHg 93%
    01:00 -2°C° 0,9 mm 4 m/S 622 mmHg 94%
    02:00 -2°C° 1,2 mm 4 m/S 622 mmHg 95%
    03:00 -1°C° 1,2 mm 3 m/S 622 mmHg 95%
    04:00 -2°C° 1,2 mm 3 m/S 622 mmHg 96%
    05:00 -2°C° 1 mm 3 m/S 622 mmHg 96%
    06:00 -2°C° 1 mm 3 m/S 622 mmHg 95%
    07:00 -2°C° 1 mm 3 m/S 622 mmHg 95%
    08:00 -2°C° 1,2 mm 3 m/S 622 mmHg 95%
    09:00 -3°C° 1,2 mm 2 m/S 622 mmHg 95%
    10:00 -3°C° 1,2 mm 2 m/S 622 mmHg 95%
    11:00 -3°C° 1,1 mm 2 m/S 622 mmHg 96%
    12:00 -4°C° 1,1 mm 2 m/S 622 mmHg 96%
    13:00 -4°C° 1,1 mm 2 m/S 622 mmHg 96%
    14:00 -4°C° 0,7 mm 2 m/S 622 mmHg 96%
    15:00 -5°C° 0,7 mm 2 m/S 622 mmHg 96%
    16:00 -5°C° 0,7 mm 2 m/S 622 mmHg 96%
    17:00 -6°C° 0,5 mm 2 m/S 622 mmHg 96%
    18:00 -7°C° 0,5 mm 2 m/S 622 mmHg 96%
    19:00 -7°C° 0,5 mm 2 m/S 622 mmHg 96%
    20:00 -8°C° 0,4 mm 2 m/S 622 mmHg 96%
    21:00 -8°C° 0,4 mm 2 m/S 622 mmHg 96%
    22:00 -8°C° 0,4 mm 2 m/S 622 mmHg 96%
    23:00 -9°C° 0,2 mm 2 m/S 622 mmHg 95%

    20 Januar, Samstag

    Zeit Temperatur Niederschläge Wind Luftdruck Luftfeuchtigkeit
    00:00 -9°C° 0,2 mm 2 m/S 621 mmHg 95%
    01:00 -10°C° 0,2 mm 2 m/S 621 mmHg 94%
    02:00 -10°C° 0,2 mm 2 m/S 621 mmHg 92%
    03:00 -12°C° 0,2 mm 2 m/S 621 mmHg 91%
    04:00 -12°C° 0,2 mm 2 m/S 620 mmHg 89%
    05:00 -12°C° 0,6 mm 2 m/S 621 mmHg 91%
    06:00 -10°C° 0,6 mm 2 m/S 621 mmHg 93%
    07:00 -10°C° 0,6 mm 2 m/S 621 mmHg 95%
    08:00 -10°C° 0,4 mm 2 m/S 622 mmHg 95%
    09:00 -10°C° 0,4 mm 2 m/S 622 mmHg 95%
    10:00 -9°C° 0,4 mm 2 m/S 623 mmHg 94%
    11:00 -10°C° 0,2 mm 3 m/S 623 mmHg 92%
    12:00 -10°C° 0,2 mm 3 m/S 623 mmHg 90%
    13:00 -10°C° 0,2 mm 3 m/S 623 mmHg 88%
    14:00 -10°C° 0,1 mm 3 m/S 623 mmHg 89%
    15:00 -10°C° 0,1 mm 2 m/S 622 mmHg 89%
    16:00 -10°C° 0,1 mm 2 m/S 622 mmHg 90%
    17:00 -12°C° 0,1 mm 2 m/S 622 mmHg 91%
    18:00 -14°C° 0,1 mm 2 m/S 623 mmHg 92%
    19:00 -15°C° 0,1 mm 2 m/S 623 mmHg 92%
    20:00 -15°C° 0,1 mm 2 m/S 623 mmHg 91%
    21:00 -15°C° 0,1 mm 2 m/S 624 mmHg 90%
    22:00 -16°C° 0,1 mm 2 m/S 624 mmHg 88%
    23:00 -17°C° 0 mm 3 m/S 624 mmHg 87%

    21 Januar, Sonntag

    Zeit Temperatur Niederschläge Wind Luftdruck Luftfeuchtigkeit
    00:00 -17°C° 0 mm 3 m/S 624 mmHg 86%
    01:00 -18°C° 0 mm 3 m/S 624 mmHg 85%
    02:00 -18°C° 0 mm 3 m/S 624 mmHg 84%
    03:00 -18°C° 0 mm 3 m/S 624 mmHg 83%
    04:00 -18°C° 0 mm 3 m/S 624 mmHg 83%
    05:00 -18°C° 0 mm 3 m/S 624 mmHg 82%
    06:00 -18°C° 0 mm 3 m/S 624 mmHg 81%
    07:00 -18°C° 0 mm 3 m/S 624 mmHg 80%
    08:00 -16°C° 0 mm 2 m/S 624 mmHg 80%
    09:00 -15°C° 0 mm 2 m/S 625 mmHg 79%
    10:00 -13°C° 0 mm 2 m/S 625 mmHg 79%
    11:00 -12°C° 0 mm 2 m/S 625 mmHg 76%
    12:00 -8°C° 0 mm 1 m/S 626 mmHg 73%
    13:00 -7°C° 0 mm 1 m/S 626 mmHg 70%
    14:00 -7°C° 0 mm 1 m/S 626 mmHg 74%
    15:00 -8°C° 0 mm 1 m/S 626 mmHg 78%
    16:00 -8°C° 0 mm 1 m/S 626 mmHg 82%
    17:00 -9°C° 0 mm 1 m/S 626 mmHg 81%
    18:00 -12°C° 0 mm 2 m/S 626 mmHg 80%
    19:00 -14°C° 0 mm 2 m/S 626 mmHg 78%
    20:00 -13°C° 0 mm 2 m/S 626 mmHg 79%
    21:00 -13°C° 0 mm 2 m/S 626 mmHg 79%
    22:00 -12°C° 0 mm 2 m/S 627 mmHg 79%
    23:00 -10°C° 0,2 mm 2 m/S 627 mmHg 83%

    22 Januar, Montag

    Zeit Temperatur Niederschläge Wind Luftdruck Luftfeuchtigkeit
    00:00 -9°C° 0,2 mm 2 m/S 627 mmHg 86%
    01:00 -8°C° 0,2 mm 2 m/S 628 mmHg 89%
    02:00 -7°C° 0,3 mm 1 m/S 628 mmHg 90%
    03:00 -6°C° 0,3 mm 1 m/S 628 mmHg 92%
    04:00 -4°C° 0,3 mm 1 m/S 628 mmHg 93%
    05:00 -4°C° 0,3 mm 1 m/S 629 mmHg 93%
    06:00 -3°C° 0,3 mm 1 m/S 629 mmHg 93%
    07:00 -3°C° 0,3 mm 1 m/S 629 mmHg 93%
    08:00 -2°C° 0,2 mm 1 m/S 630 mmHg 93%
    09:00 -4°C° 0,2 mm 2 m/S 630 mmHg 93%
    10:00 -3°C° 0,2 mm 2 m/S 630 mmHg 93%
    11:00 -2°C° 0 mm 2 m/S 630 mmHg 94%
    12:00 -2°C° 0 mm 2 m/S 630 mmHg 95%
    13:00 -1°C° 0 mm 2 m/S 630 mmHg 96%
    14:00 -1°C° 0,1 mm 2 m/S 630 mmHg 94%
    15:00 -1°C° 0,1 mm 2 m/S 630 mmHg 93%
    16:00 -1°C° 0,1 mm 2 m/S 630 mmHg 91%
    17:00 -2°C° 0,1 mm 2 m/S 630 mmHg 90%
    18:00 -2°C° 0,1 mm 2 m/S 630 mmHg 89%
    19:00 -2°C° 0,1 mm 2 m/S 630 mmHg 89%
    20:00 -2°C° 0,2 mm 2 m/S 630 mmHg 90%
    21:00 -2°C° 0,2 mm 2 m/S 630 mmHg 91%
    22:00 0°C° 0,2 mm 1 m/S 631 mmHg 92%
    23:00 0°C° 0,6 mm 1 m/S 631 mmHg 92%
    Mehr zeigen